Other Public Products
Issued by NWS Grand Forks, ND

Home | Current Version | Previous Version | Text Only | Print | Product List | Glossary Off
Versions: 1 2 3 4 5 6 7 8 9 10 11 12 13 14 15 16 17 18 19 20 21 22 23 24 25 26 27 28 29 30 31 32 33 34 35 36 37 38 39 40 41 42 43 44 45 46 47 48 49 50

000
FPUS83 KFGF 251710
OPUFGF
PRAIRIE TO PINES WEATHER ROUNDUP
NATIONAL WEATHER SERVICE EASTERN NORTH DAKOTA/GRAND FORKS ND
1200 PM CDT TUE APR 25 2017

 **SATELLITE DATA USED TO AUGMENT SKY COVER AT AUTOMATED STATIONS**
 *****  WEATHER ACROSS EASTERN NORTH DAKOTA  *****

CITY           SKY/WX    TMP DP  RH WIND       PRES   REMARKS
GRAND FORKS    CLOUDY    35  29  78 N28G33    29.81S WCI  22
GRAND FORKS AF CLOUDY    32  27  79 NE28G33   29.81F WCI  19
GRAND CITY NWS NOT AVBL
BUXTON         NOT AVBL
DEVILS LAKE    CLOUDY    30  24  78 NE23G29   29.88R WCI  17
FARGO          CLOUDY    36  31  82 N18G32    29.75R
WAHPETON ARPT  CLOUDY    36  32  87 N16G22    29.71R
$$

 *****  WEATHER ACROSS CENTRAL AND WESTERN NORTH DAKOTA  *****

CITY           SKY/WX    TMP DP  RH WIND       PRES   REMARKS
JAMESTOWN      CLOUDY    32  27  81 N20G29    29.81R WCI  20
BISMARCK       CLOUDY    32  27  81 N13       29.87F WCI  22
MINOT          CLOUDY    34  25  69 N16       29.93R WCI  24
MINOT AFB      CLOUDY    33  23  68 NE14      29.94R WCI  23
GARRISON         N/A     30  23  75 NE10      29.90R WCI  21
WILLISTON      CLOUDY    35  22  58 E8        29.97R
DICKINSON      CLOUDY    26  23  88 N17       29.85S WCI  13
HETTINGER      CLOUDY    27  25  92 NE13      29.85R FOG     WCI  16
$$

 *****  OTHER OBSERVATIONS NORTHEAST NORTH DAKOTA  *****

CITY           SKY/WX    TMP DP  RH WIND       PRES   REMARKS
WALHALLA       NOT AVBL
LANGDON        CLOUDY    30  27  86 NE24G33   29.87S WCI  16
CAVALIER       CLOUDY    32  25  74 N18G29    29.89S WCI  20
GRAFTON        CLOUDY    32  27  80 N21G30    29.87F WCI  20
CANDO          NOT AVBL
FORT TOTTEN      N/A     30  26  85 NE9       29.95S WCI  22
ROLLA          CLOUDY    30  27  86 N20G29    29.91R WCI  18
RUGBY          NOT AVBL
 ***** THE ABOVE OBSERVATIONS ARE NON NWS ARE NOT QUALITY
        CONTROLLED AND MAY MIS-REPORT RAIN FOR SNOW...
$$

 *****  OTHER OBSERVATIONS SOUTHEAST NORTH DAKOTA *****

CITY           SKY/WX    TMP DP  RH WIND       PRES   REMARKS
COOPERSTOWN    CLOUDY    30  28  93 N28G36    29.80R WCI  16
VALLEY CITY    FLURRIES  32  32 100 N24G30    29.80R WCI  19
OAKES          NOT AVBL
GWINNER        CLOUDY    34  32  93 MISG      29.75R
SHEYENNE NWR     N/A     34  29  83 N14       29.95  WCI  25
BUFFALO        NOT AVBL
WYNDMERE         N/A     37  34  87 VRB20       N/A
 ***** THE ABOVE OBSERVATIONS ARE NON NWS ARE NOT QUALITY
       CONTROLLED AND MAY MIS-REPORT RAIN FOR SNOW...
$$

  *****  WEATHER ACROSS NORTHERN MINNESOTA  *****

CITY           SKY/WX    TMP DP  RH WIND       PRES   REMARKS
FLAG ISLAND    CLOUDY    28  25  86 N24       29.86R WCI  14
WARROAD        CLOUDY    30  27  86 N17G23    29.85R WCI  18
ROSEAU         CLOUDY    30  27  86 NE20      29.84R WCI  18
HALLOCK        CLOUDY    34  27  75 NE15      29.88R WCI  24
THF RVR FALLS  NOT AVBL
HALSTAD          N/A     35  30  83 N21         N/A  WCI  23
FOSSTON        CLOUDY    34  34 100 N14G23    29.73F WCI  24
BAUDETTE       CLOUDY    32  27  81 NE15G25   29.81R WCI  22
WASKISH        CLOUDY    34  32  93 NE13G18   29.77R WCI  25
CROOKSTON      CLOUDY    34  30  86 NE20G26   29.80R WCI  22
$$
  *****  WEATHER ACROSS CENTRAL AND WEST MINNESOTA  *****

CITY           SKY/WX    TMP DP  RH WIND       PRES   REMARKS
BEMIDJI        CLOUDY    34  33  96 N12       29.72R
PARK RAPIDS    CLOUDY    41  33  73 N15G21    29.66R
WADENA         CLOUDY    39  37  93 N16G22    29.64S
DETROIT LAKES  CLOUDY    37  36  93 N12G20    29.70R
MOORHEAD       CLOUDY    36  30  80 N23       29.75R
FERGUS FALLS   CLOUDY    37  37 100 N10G16    29.68R
ELBOW LAKE     CLOUDY    41  38  88 NE13G20   29.65S
MORRIS MN      CLOUDY    43  39  87 N17       29.63S
STAPLES        CLOUDY    43  37  81 N14G20    29.64R
WHEATON        CLOUDY    36  34  93 NW18G25   29.70F
$$
  *****  WEATHER ELSEWHERE ACROSS MINNESOTA  *****

CITY           SKY/WX    TMP DP  RH WIND       PRES   REMARKS
DULUTH         CLOUDY    54  41  61 E5        29.61R
INTRNTL FALLS  CLOUDY    32  28  85 N10       29.79R WCI  24
ELY            CLOUDY    43  39  87 N5        29.67R
CLOQUET        CLOUDY    54  39  58 E7        29.61R
BRAINERD       PTSUNNY   50  40  68 N16       29.62R
HIBBING        CLOUDY    46  40  79 NE9       29.65R
ALEXANDRIA     CLOUDY    44  39  82 N17       29.62S
SAINT CLOUD    FAIR      56  44  64 N10       29.56S
MINNEAPOLIS    CLOUDY    58  45  62 SW8       29.55S
$$

  *****  WEATHER ACROSS SOUTH DAKOTA  *****

CITY           SKY/WX    TMP DP  RH WIND       PRES   REMARKS
SIOUX FALLS    CLOUDY    42  38  85 N17       29.60F
BROOKINGS      CLOUDY    37  35  92 N17       29.63F
WATERTOWN      CLOUDY    35  33  92 N17       29.66R WCI  25
HURON          CLOUDY    37  33  85 N17       29.69F
SISSETON         N/A     35  33  92 N23G29    29.70S WCI  23
ABERDEEN       CLOUDY    34  28  79 N21       29.75S WCI  22
MITCHELL       CLOUDY    40  35  83 N22       29.66F
PIERRE         CLOUDY    35  29  78 N17       29.73S WCI  25
MOBRIDGE       CLOUDY    33  27  78 N16       29.77F WCI  23
RAPID CITY     SNOW      30  28  92 N16       29.75R VSB 1/2 WCI  19
$$

  *****  SOME WEATHER IN NEARBY STATES *****

CITY           SKY/WX    TMP DP  RH WIND       PRES   REMARKS
GLASGOW MT     CLOUDY    33  24  69 SE12      29.96R WCI  24
GREAT FALLS MT LGT RAIN  42  39  89 E6        29.81R
CHEYENNE WY    FAIR      48  25  40 W23G35    29.60S
SCOTTSBLUFF NE CLOUDY    49  42  77 NE23G30   29.57R
OMAHA NE       CLOUDY    55  45  68 N17       29.50R
DES MOINES IA  PTSUNNY   67  47  48 SE8       29.49F
DAVENPORT IA   FAIR      70  43  37 S13       29.60F
CHICAGO IL     PTSUNNY   74  49  41 S14       29.67F
EAU CLAIRE WI  FAIR      71  40  32 S10G20    29.53F
LA CROSSE WI   FAIR      71  43  36 S8        29.55S
$$

  *****  SOME NATIONAL WEATHER *****

CITY           SKY/WX    TMP DP  RH WIND       PRES   REMARKS
LA GUARDIA NY  CLOUDY    57  51  80 E24G30    30.06F
RALEIGH NC     CLOUDY    64  57  78 VRB5      29.64F
ATLANTA GA     FAIR      71  58  63 N15       29.79F
NEW ORLEANS LA FAIR      76  57  51 S10       29.83F
OKLAHOMA CITY  FAIR      79  55  43 SW17      29.41R
ALBUQUERQUE NM LGT RAIN  47  45  93 SW9       29.75S
SALT LAKE CITY LGT RAIN  41  38  89 N6        29.84R
LOS ANGELES CA PTSUNNY   70  39  32 NW18G26   29.90R
BOISE ID       FAIR      49  36  61 N17       29.94R
SEATTLE WA     PTSUNNY   51  43  74 S6        29.95F
$$

*** WEATHER ACROSS MANITOBA...SASKATCHEWAN AND ONTARIO ***
                ***ONTARIO***

CITY           SKY/WX    TMP DP  RH WIND       PRES   REMARKS
GERALDTON      FRZ RAIN  30  27  86 NE13G18   29.82S WCI  20
THUNDER BAY    CLOUDY    43  41  93 E12       29.70S
SIOUX LOOKOUT  CLOUDY    25  19  80 VRB10G17  29.87R WCI  15
TORONTO        LGT RAIN  48  48 100 E17G24    29.97F
BIG TROUT LK   SUNNY     25   5  42 E12G17    30.21S WCI  14
PICKLE LAKE    LGT SNOW  23  14  68 NE15G26   29.97R DRFTSNOWWCI  10
DRYDEN         CLOUDY    25  21  86 NE15G26   29.85R WCI  12
KENORA         CLOUDY    27  21  80 NE14G23   29.85S WCI  15
$$
                *** MANITOBA***

CITY           SKY/WX    TMP DP  RH WIND       PRES   REMARKS
BRANDON        MOSUNNY   36  19  51 NE23G31   29.98R
DAUPHIN        SUNNY     34  18  51 NE14G22   30.09R WCI  24
ISLAND LAKE    NOT AVBL
PILOT MOUND      N/A     30  23  74 N17G25      N/A  WCI  18
THE PAS        PTSUNNY   28   5  37 NE7       30.23S WCI  21
THOMPSON       SUNNY     18  -4  38 NE7       30.33F WCI   8
WINNIPEG       CLOUDY    34  25  69 NE24G31   29.95R WCI  21
LYNN LAKE      SUNNY     23   3  42 SE9       30.26S WCI  13
CHURCHILL      FLURRIES   3   1  92 S5        30.47F WCI  -6
GILLAM         SUNNY     12  -6  44 NE6       30.40F WCI   3
$$
                ***SASKATCHEWAN***

CITY           SKY/WX    TMP DP  RH WIND       PRES   REMARKS
ESTEVAN        PTSUNNY   34  25  69 NE13G22   29.99R WCI  25
KINDERSLEY     CLOUDY    32  23  69 E15       29.97S WCI  22
LLOYDMINSTER   LGT SNOW  30  28  93 E14       30.01R WCI  20
PRINCE ALBERT  PTSUNNY   34  12  40 SE8G17    30.13R
REGINA         PTSUNNY   30  18  59 NE9       30.03S WCI  22
YORKTON        SUNNY     32  19  59 NE13G18   30.07R W



USA.gov is the U.S. government's official web portal to all federal, state and local government web resources and services.